Location: Recife
(8.0585°S, 34.8848°W)
Time: 20:15:01
(UTC-03:00)

A-11 Canister half - Pass Details

Date: 14 April 2026
Orbit: 1515 x 1684 km, 47.2° (Epoch: 16 May)

Event Time Altitude Azimuth Distance (km) Brightness Sun altitude
Rises 23:42:50 0° 203° (SSW) 4,761 - -84.0°
Reaches altitude 10° 23:46:41 10° 191° (S) 3,749 - -83.1°
Maximum altitude 23:54:16 27° 137° (SE) 2,627 - -81.3°
Drops below altitude 10° 00:01:40 10° 83° (E) 3,674 - -79.5°
Sets 00:05:19 0° 71° (ENE) 4,648 - -78.6°
